ORBCOMM FM116

Last updated on Wed Sep 23 2026 00:03:43 GMT+0000 (Coordinated Universal Time)

1 41189U 15081L 26265.27507613 .00000330 00000+0 10586-3 0 9998 2 41189 47.0016 171.5345 0000858 163.9037 196.1876 14.58966741573115
UTC large
Height (km)
Speed (km/s)
/
Latitude / Longitude
Inclination (degrees)
Orbital Period (minutes)
Azimuth
Elevation
Range (km)
Doppler Factor

Next 0 passes for location: London (51.5072 / 0.1276)

No passes found over London.
ORBCOMM FM116